Location: Newark
(21.1200°N, 73.4000°E)
Time: 11:23:50
(UTC+00:00)

Vanguard 2 Rocket - Pass Details

Date: 24 January 2020
Orbit: 553 x 3327 km, 32.9° (Epoch: 26 February)

Event Time Altitude Azimuth Distance (km) Brightness Sun altitude
Exits shadow 00:03:32 34° 357° (N) 1,110 7.2 -23.7°
Drops below altitude 10° 00:08:18 10° 52° (NE) 2,563 9.7 -22.6°
Sets 00:11:45 0° 61° (ENE) 3,898 10.9 -21.8°
